| time (UTC) | temp C | wind direction | speed KPH | gust KPH | rain 1hr cm | rain 24hr cm | rain mn cm | humidity % | barometer mb |
| 20260510095305 | 18 | 59 | 0.0 | 0.0 | 0.00 | 0.00 | 0.00 | 92 | 1014.5 |
| 20260510094802 | 18 | 53 | 0.0 | 0.0 | 0.00 | 0.00 | 0.00 | 91 | 1014.7 |
| 20260510094258 | 18 | 55 | 0.0 | 0.0 | 0.00 | 0.00 | 0.00 | 91 | 1014.8 |
| 20260510093754 | 19 | 52 | 0.0 | 0.0 | 0.00 | 0.00 | 0.00 | 90 | 1014.6 |
| 20260510093251 | 19 | 46 | 0.0 | 0.0 | 0.00 | 0.00 | 0.00 | 90 | 1014.2 |
| 20260510092747 | 19 | 45 | 0.0 | 0.0 | 0.00 | 0.00 | 0.00 | 89 | 1014.6 |
| 20260510092243 | 20 | 46 | 0.0 | 0.0 | 0.00 | 0.00 | 0.00 | 88 | 1014.6 |
| 20260510091739 | 20 | 45 | 0.0 | 0.0 | 0.00 | 0.00 | 0.00 | 88 | 1014.4 |
| 20260510091236 | 20 | 36 | 0.0 | 0.0 | 0.00 | 0.00 | 0.00 | 87 | 1014.5 |
| 20260510090732 | 20 | 45 | 0.0 | 0.0 | 0.00 | 0.00 | 0.00 | 86 | 1014.2 |
| 20260510090230 | 20 | 63 | 0.0 | 0.0 | 0.00 | 0.00 | 0.00 | 86 | 1014.4 |
| 20260510085725 | 20 | 54 | 0.0 | 0.0 | 0.00 | 0.00 | 0.00 | 85 | 1014.5 |
| 20260510085219 | 21 | 59 | 0.0 | 0.0 | 0.00 | 0.00 | 0.00 | 85 | 1014.4 |
| 20260510084716 | 20 | 48 | 0.0 | 0.0 | 0.00 | 0.00 | 0.00 | 86 | 1014.2 |
| 20260510084213 | 20 | 63 | 0.0 | 0.0 | 0.00 | 0.00 | 0.00 | 86 | 1014.1 |
| 20260510083710 | 20 | 60 | 0.0 | 0.0 | 0.00 | 0.00 | 0.00 | 88 | 1014.2 |
| 20260510083207 | 20 | 60 | 0.0 | 0.0 | 0.00 | 0.00 | 0.00 | 89 | 1014.0 |
| 20260510082702 | 20 | 58 | 0.0 | 0.0 | 0.00 | 0.00 | 0.00 | 89 | 1014.0 |
| 20260510082159 | 20 | 61 | 0.0 | 0.0 | 0.00 | 0.00 | 0.00 | 89 | 1014.1 |
| 20260510081653 | 20 | 53 | 0.0 | 0.0 | 0.00 | 0.00 | 0.00 | 88 | 1014.4 |
| 20260510081149 | 20 | 54 | 0.0 | 0.0 | 0.00 | 0.00 | 0.00 | 88 | 1014.2 |
| 20260510080648 | 20 | 53 | 0.0 | 0.0 | 0.00 | 0.00 | 0.00 | 87 | 1013.9 |
| 20260510080146 | 20 | 46 | 0.0 | 0.0 | 0.00 | 0.00 | 0.00 | 86 | 1014.0 |
| 20260510075643 | 21 | 46 | 0.0 | 0.0 | 0.00 | 0.00 | 0.00 | 85 | 1013.9 |
| 20260510075140 | 21 | 46 | 0.0 | 0.0 | 0.00 | 0.00 | 0.00 | 84 | 1014.1 |
| 20260510074637 | 21 | 46 | 0.0 | 0.0 | 0.00 | 0.00 | 0.00 | 83 | 1014.1 |
| 20260510074132 | 21 | 57 | 0.0 | 0.0 | 0.00 | 0.00 | 0.00 | 82 | 1014.0 |
| 20260510073629 | 22 | 51 | 0.0 | 0.0 | 0.00 | 0.00 | 0.00 | 80 | 1014.0 |
| 20260510073126 | 22 | 50 | 0.0 | 0.0 | 0.00 | 0.00 | 0.00 | 80 | 1013.9 |
| 20260510072622 | 22 | 52 | 0.0 | 0.0 | 0.00 | 0.00 | 0.00 | 79 | 1014.1 |
| 20260510072119 | 22 | 78 | 0.0 | 1.6 | 0.00 | 0.00 | 0.00 | 79 | 1014.0 |
| 20260510071614 | 22 | 40 | 0.0 | 1.6 | 0.00 | 0.00 | 0.00 | 79 | 1014.1 |
| 20260510071112 | 22 | 58 | 0.0 | 0.0 | 0.00 | 0.00 | 0.00 | 78 | 1013.9 |
| 20260510070609 | 22 | 73 | 0.0 | 0.0 | 0.00 | 0.00 | 0.00 | 78 | 1013.9 |
| 20260510070107 | 22 | 51 | 1.6 | 1.6 | 0.00 | 0.00 | 0.00 | 78 | 1014.2 |
| 20260510065602 | 22 | 52 | 0.0 | 1.6 | 0.00 | 0.00 | 0.00 | 77 | 1014.1 |
| 20260510065058 | 23 | 72 | 0.0 | 0.0 | 0.00 | 0.00 | 0.00 | 76 | 1014.2 |
| 20260510064555 | 23 | 56 | 0.0 | 0.0 | 0.00 | 0.00 | 0.00 | 76 | 1014.0 |
| 20260510064052 | 23 | 44 | 0.0 | 0.0 | 0.00 | 0.00 | 0.00 | 76 | 1014.4 |
| 20260510063549 | 23 | 63 | 0.0 | 0.0 | 0.00 | 0.00 | 0.00 | 75 | 1014.1 |
| 20260510063046 | 23 | 40 | 0.0 | 0.0 | 0.00 | 0.00 | 0.00 | 75 | 1014.1 |
| 20260510062542 | 23 | 70 | 0.0 | 1.6 | 0.00 | 0.00 | 0.00 | 75 | 1014.0 |
| 20260510062037 | 23 | 58 | 0.0 | 0.0 | 0.00 | 0.00 | 0.00 | 75 | 1014.2 |
| 20260510061534 | 23 | 43 | 0.0 | 1.6 | 0.00 | 0.00 | 0.00 | 75 | 1014.5 |
| 20260510061030 | 23 | 86 | 0.0 | 0.0 | 0.00 | 0.00 | 0.00 | 75 | 1014.6 |
| 20260510060527 | 23 | 54 | 0.0 | 0.0 | 0.00 | 0.00 | 0.00 | 74 | 1014.2 |
| 20260510060023 | 23 | 54 | 0.0 | 0.0 | 0.00 | 0.00 | 0.00 | 74 | 1014.5 |
| 20260510055519 | 23 | 50 | 1.6 | 1.6 | 0.00 | 0.00 | 0.00 | 74 | 1014.2 |
| 20260510055018 | 23 | 112 | 0.0 | 1.6 | 0.00 | 0.00 | 0.00 | 74 | 1014.2 |
| 20260510054513 | 24 | 97 | 0.0 | 0.0 | 0.00 | 0.00 | 0.00 | 73 | 1014.4 |
| 20260510054008 | 24 | 43 | 1.6 | 1.6 | 0.00 | 0.00 | 0.00 | 73 | 1014.0 |
| 20260510053503 | 24 | 84 | 0.0 | 1.6 | 0.00 | 0.00 | 0.00 | 73 | 1014.1 |
| 20260510053000 | 24 | 93 | 0.0 | 0.0 | 0.00 | 0.00 | 0.00 | 73 | 1014.0 |
| 20260510052456 | 24 | 65 | 1.6 | 1.6 | 0.00 | 0.00 | 0.00 | 73 | 1014.0 |
| 20260510051952 | 24 | 51 | 1.6 | 1.6 | 0.00 | 0.00 | 0.00 | 74 | 1013.8 |
| 20260510051448 | 24 | 358 | 0.0 | 1.6 | 0.00 | 0.00 | 0.00 | 74 | 1014.0 |
| 20260510050944 | 24 | 66 | 0.0 | 1.6 | 0.00 | 0.00 | 0.00 | 74 | 1014.0 |
| 20260510050442 | 24 | 40 | 0.0 | 0.0 | 0.00 | 0.00 | 0.00 | 74 | 1013.8 |
| 20260510045939 | 24 | 76 | 1.6 | 1.6 | 0.00 | 0.00 | 0.00 | 74 | 1014.0 |
| 20260510045436 | 24 | 133 | 0.0 | 1.6 | 0.00 | 0.00 | 0.00 | 74 | 1013.7 |
| 20260510044933 | 24 | 100 | 3.2 | 3.2 | 0.00 | 0.00 | 0.00 | 75 | 1014.0 |
| 20260510044430 | 24 | 106 | 3.2 | 3.2 | 0.00 | 0.00 | 0.00 | 74 | 1013.9 |
| 20260510043926 | 25 | 57 | 0.0 | 1.6 | 0.00 | 0.00 | 0.00 | 74 | 1013.8 |
| 20260510043422 | 25 | 89 | 1.6 | 3.2 | 0.00 | 0.00 | 0.00 | 74 | 1014.0 |
| 20260510042921 | 24 | 89 | 0.0 | 1.6 | 0.00 | 0.00 | 0.00 | 74 | 1013.6 |
| 20260510042416 | 23 | 21 | 0.0 | 1.6 | 0.00 | 0.00 | 0.00 | 78 | 1013.8 |
| 20260510041912 | 22 | 74 | 0.0 | 0.0 | 0.00 | 0.00 | 0.00 | 83 | 1013.7 |
| 20260510041409 | 22 | 69 | 0.0 | 0.0 | 0.00 | 0.00 | 0.00 | 84 | 1013.5 |
| 20260510040907 | 22 | 69 | 0.0 | 0.0 | 0.00 | 0.00 | 0.00 | 85 | 1013.7 |
| 20260510040404 | 21 | 79 | 0.0 | 1.6 | 0.00 | 0.00 | 0.00 | 86 | 1013.4 |
| 20260510035859 | 21 | 72 | 0.0 | 0.0 | 0.00 | 0.00 | 0.00 | 86 | 1013.6 |
| 20260510035355 | 21 | 62 | 0.0 | 0.0 | 0.00 | 0.00 | 0.00 | 85 | 1013.5 |
| 20260510034850 | 21 | 64 | 0.0 | 0.0 | 0.00 | 0.00 | 0.00 | 85 | 1013.4 |
| 20260510034349 | 22 | 60 | 0.0 | 0.0 | 0.00 | 0.00 | 0.00 | 84 | 1013.6 |
| 20260510033845 | 22 | 54 | 0.0 | 0.0 | 0.00 | 0.00 | 0.00 | 84 | 1013.3 |
| 20260510033342 | 22 | 54 | 0.0 | 0.0 | 0.00 | 0.00 | 0.00 | 83 | 1013.3 |
| 20260510032838 | 22 | 59 | 0.0 | 0.0 | 0.00 | 0.00 | 0.00 | 81 | 1013.3 |
| 20260510032335 | 22 | 60 | 0.0 | 0.0 | 0.00 | 0.00 | 0.00 | 81 | 1013.1 |
| 20260510031831 | 22 | 60 | 0.0 | 0.0 | 0.00 | 0.00 | 0.00 | 79 | 1013.3 |
| 20260510031327 | 23 | 62 | 0.0 | 0.0 | 0.00 | 0.00 | 0.00 | 78 | 1013.3 |
| 20260510030826 | 23 | 64 | 0.0 | 0.0 | 0.00 | 0.00 | 0.00 | 78 | 1013.1 |
| 20260510030323 | 23 | 74 | 0.0 | 0.0 | 0.00 | 0.00 | 0.00 | 77 | 1013.2 |
| 20260510025820 | 23 | 72 | 0.0 | 0.0 | 0.00 | 0.00 | 0.00 | 76 | 1013.1 |
| 20260510025318 | 24 | 72 | 0.0 | 0.0 | 0.00 | 0.00 | 0.00 | 75 | 1013.2 |
| 20260510024814 | 24 | 79 | 1.6 | 1.6 | 0.00 | 0.00 | 0.00 | 74 | 1012.8 |
| 20260510024311 | 24 | 74 | 0.0 | 0.0 | 0.00 | 0.00 | 0.00 | 74 | 1013.2 |
| 20260510023808 | 25 | 71 | 0.0 | 0.0 | 0.00 | 0.00 | 0.00 | 73 | 1013.1 |
| 20260510023304 | 25 | 73 | 0.0 | 0.0 | 0.00 | 0.00 | 0.00 | 72 | 1013.1 |
| 20260510022801 | 25 | 77 | 0.0 | 1.6 | 0.00 | 0.00 | 0.00 | 71 | 1012.8 |
| 20260510022300 | 25 | 81 | 1.6 | 1.6 | 0.00 | 0.00 | 0.00 | 71 | 1012.9 |
| 20260510021800 | 25 | 81 | 1.6 | 3.2 | 0.00 | 0.00 | 0.00 | 71 | 1012.8 |
| 20260510021258 | 25 | 69 | 0.0 | 0.0 | 0.00 | 0.00 | 0.00 | 71 | 1012.6 |
| 20260510020754 | 25 | 76 | 1.6 | 1.6 | 0.00 | 0.00 | 0.00 | 70 | 1012.4 |
| 20260510020253 | 25 | 70 | 0.0 | 0.0 | 0.00 | 0.00 | 0.00 | 69 | 1012.4 |
| 20260510015750 | 26 | 77 | 0.0 | 0.0 | 0.00 | 0.00 | 0.00 | 69 | 1012.7 |
| 20260510015247 | 26 | 70 | 1.6 | 1.6 | 0.00 | 0.00 | 0.00 | 68 | 1012.6 |
| 20260510014741 | 26 | 76 | 1.6 | 1.6 | 0.00 | 0.00 | 0.00 | 67 | 1012.5 |
| 20260510014239 | 26 | 71 | 0.0 | 1.6 | 0.00 | 0.00 | 0.00 | 66 | 1012.3 |
| 20260510013735 | 26 | 83 | 0.0 | 1.6 | 0.00 | 0.00 | 0.00 | 66 | 1012.1 |
| 20260510013231 | 26 | 87 | 1.6 | 3.2 | 0.00 | 0.00 | 0.00 | 65 | 1012.1 |
| 20260510012731 | 26 | 128 | 1.6 | 1.6 | 0.00 | 0.00 | 0.00 | 65 | 1012.1 |
| 20260510012226 | 26 | 77 | 0.0 | 1.6 | 0.00 | 0.00 | 0.00 | 64 | 1012.0 |
| 20260510011727 | 27 | 118 | 3.2 | 3.2 | 0.00 | 0.00 | 0.00 | 63 | 1011.9 |
| 20260510011222 | 27 | 141 | 1.6 | 3.2 | 0.00 | 0.00 | 0.00 | 62 | 1011.9 |
| 20260510010719 | 27 | 136 | 0.0 | 1.6 | 0.00 | 0.00 | 0.00 | 61 | 1011.6 |
| 20260510010215 | 27 | 84 | 1.6 | 1.6 | 0.00 | 0.00 | 0.00 | 59 | 1011.6 |
| 20260510005712 | 27 | 73 | 1.6 | 3.2 | 0.00 | 0.00 | 0.00 | 57 | 1011.6 |
| 20260510005208 | 27 | 92 | 0.0 | 0.0 | 0.00 | 0.00 | 0.00 | 56 | 1011.5 |
| 20260510004707 | 28 | 93 | 1.6 | 3.2 | 0.00 | 0.00 | 0.00 | 54 | 1011.5 |
| 20260510004204 | 28 | 66 | 0.0 | 1.6 | 0.00 | 0.00 | 0.00 | 54 | 1011.5 |
| 20260510003701 | 28 | 93 | 1.6 | 3.2 | 0.00 | 0.00 | 0.00 | 53 | 1011.2 |
| 20260510003158 | 28 | 74 | 1.6 | 1.6 | 0.00 | 0.00 | 0.00 | 54 | 1011.5 |
| 20260510002657 | 28 | 75 | 3.2 | 4.8 | 0.00 | 0.00 | 0.00 | 60 | 1011.3 |
| 20260510002154 | 28 | 116 | 3.2 | 4.8 | 0.00 | 0.00 | 0.00 | 61 | 1011.3 |
| 20260510001651 | 27 | 57 | 1.6 | 3.2 | 0.00 | 0.00 | 0.00 | 65 | 1011.1 |
| 20260510001150 | 27 | 70 | 1.6 | 1.6 | 0.00 | 0.00 | 0.00 | 68 | 1011.0 |
| 20260510000650 | 27 | 44 | 0.0 | 0.0 | 0.00 | 0.00 | 0.00 | 72 | 1011.0 |
| 20260510000148 | 27 | 42 | 0.0 | 0.0 | 0.00 | 0.00 | 0.00 | 67 | 1010.8 |
| 20260509235644 | 28 | 43 | 0.0 | 0.0 | 0.00 | 0.00 | 0.00 | 66 | 1010.9 |
| 20260509235141 | 28 | 42 | 0.0 | 0.0 | 0.00 | 0.00 | 0.00 | 64 | 1010.9 |
| 20260509234637 | 29 | 24 | 0.0 | 1.6 | 0.00 | 0.00 | 0.00 | 62 | 1010.7 |
| 20260509234135 | 28 | 7 | 0.0 | 1.6 | 0.00 | 0.00 | 0.00 | 63 | 1010.6 |
| 20260509233632 | 28 | 41 | 0.0 | 1.6 | 0.00 | 0.00 | 0.00 | 62 | 1010.8 |
| 20260509233130 | 28 | 58 | 0.0 | 0.0 | 0.00 | 0.00 | 0.00 | 63 | 1011.0 |
| 20260509232625 | 28 | 71 | 1.6 | 1.6 | 0.00 | 0.00 | 0.00 | 61 | 1011.1 |
| 20260509232123 | 28 | 100 | 1.6 | 3.2 | 0.00 | 0.00 | 0.00 | 58 | 1011.2 |
| 20260509231619 | 30 | 112 | 3.2 | 3.2 | 0.00 | 0.00 | 0.00 | 57 | 1011.0 |
| 20260509231117 | 30 | 103 | 0.0 | 0.0 | 0.00 | 0.00 | 0.00 | 60 | 1011.1 |
| 20260509230613 | 29 | 41 | 0.0 | 0.0 | 0.00 | 0.00 | 0.00 | 62 | 1011.0 |
| 20260509230111 | 30 | 8 | 1.6 | 1.6 | 0.00 | 0.00 | 0.00 | 61 | 1011.0 |
| 20260509225606 | 30 | 35 | 0.0 | 0.0 | 0.00 | 0.00 | 0.00 | 60 | 1011.0 |
| 20260509225102 | 31 | 20 | 1.6 | 3.2 | 0.00 | 0.00 | 0.00 | 57 | 1010.9 |
| 20260509224557 | 31 | 30 | 1.6 | 1.6 | 0.00 | 0.00 | 0.00 | 53 | 1010.9 |
| 20260509224055 | 31 | 51 | 0.0 | 0.0 | 0.00 | 0.00 | 0.00 | 54 | 1010.9 |
| 20260509223551 | 31 | 69 | 0.0 | 0.0 | 0.00 | 0.00 | 0.00 | 50 | 1011.0 |
| 20260509223049 | 31 | 36 | 0.0 | 0.0 | 0.00 | 0.00 | 0.00 | 51 | 1010.9 |
| 20260509222545 | 31 | 41 | 0.0 | 1.6 | 0.00 | 0.00 | 0.00 | 49 | 1010.9 |
| 20260509222041 | 32 | 29 | 0.0 | 0.0 | 0.00 | 0.00 | 0.00 | 50 | 1010.8 |
| 20260509221537 | 32 | 58 | 0.0 | 1.6 | 0.00 | 0.00 | 0.00 | 49 | 1010.8 |
| 20260509221033 | 33 | 3 | 0.0 | 1.6 | 0.00 | 0.00 | 0.00 | 48 | 1010.6 |
| 20260509220529 | 33 | 249 | 4.8 | 4.8 | 0.00 | 0.00 | 0.00 | 45 | 1010.7 |
| 20260509220026 | 33 | 322 | 1.6 | 1.6 | 0.00 | 0.00 | 0.00 | 46 | 1010.8 |
| 20260509215521 | 33 | 126 | 1.6 | 1.6 | 0.00 | 0.00 | 0.00 | 47 | 1011.1 |
| 20260509215018 | 33 | 188 | 4.8 | 4.8 | 0.00 | 0.00 | 0.00 | 46 | 1011.0 |
| 20260509214515 | 33 | 163 | 3.2 | 4.8 | 0.00 | 0.00 | 0.00 | 46 | 1010.9 |
| 20260509214012 | 33 | 129 | 0.0 | 1.6 | 0.00 | 0.00 | 0.00 | 45 | 1011.2 |
| 20260509213508 | 33 | 288 | 1.6 | 1.6 | 0.00 | 0.00 | 0.00 | 48 | 1011.0 |
| 20260509213006 | 32 | 289 | 3.2 | 4.8 | 0.00 | 0.00 | 0.00 | 49 | 1011.2 |
| 20260509212503 | 33 | 89 | 1.6 | 1.6 | 0.00 | 0.00 | 0.00 | 47 | 1011.0 |
| 20260509211959 | 33 | 348 | 1.6 | 3.2 | 0.00 | 0.00 | 0.00 | 47 | 1011.1 |
| 20260509211454 | 33 | 221 | 1.6 | 1.6 | 0.00 | 0.00 | 0.00 | 47 | 1010.8 |
| 20260509210951 | 33 | 337 | 0.0 | 1.6 | 0.00 | 0.00 | 0.00 | 48 | 1011.0 |
| 20260509210449 | 33 | 176 | 0.0 | 1.6 | 0.00 | 0.00 | 0.00 | 47 | 1011.2 |
| 20260509205944 | 33 | 224 | 1.6 | 3.2 | 0.00 | 0.00 | 0.00 | 47 | 1011.1 |
| 20260509205439 | 33 | 203 | 1.6 | 3.2 | 0.00 | 0.00 | 0.00 | 46 | 1011.5 |
| 20260509204935 | 33 | 92 | 1.6 | 3.2 | 0.00 | 0.00 | 0.00 | 48 | 1011.6 |
| 20260509204431 | 33 | 271 | 4.8 | 8.0 | 0.00 | 0.00 | 0.00 | 47 | 1011.7 |
| 20260509203928 | 33 | 240 | 4.8 | 4.8 | 0.00 | 0.00 | 0.00 | 47 | 1011.9 |
| 20260509203424 | 33 | 266 | 4.8 | 4.8 | 0.00 | 0.00 | 0.00 | 46 | 1011.6 |
| 20260509202921 | 33 | 267 | 3.2 | 3.2 | 0.00 | 0.00 | 0.00 | 48 | 1011.9 |
| 20260509202417 | 32 | 42 | 0.0 | 1.6 | 0.00 | 0.00 | 0.00 | 50 | 1011.8 |
| 20260509201912 | 32 | 250 | 3.2 | 4.8 | 0.00 | 0.00 | 0.00 | 48 | 1011.8 |
| 20260509201408 | 32 | 247 | 3.2 | 3.2 | 0.00 | 0.00 | 0.00 | 50 | 1012.0 |
| 20260509200905 | 32 | 264 | 3.2 | 3.2 | 0.00 | 0.00 | 0.00 | 51 | 1011.9 |
| 20260509200405 | 33 | 246 | 3.2 | 4.8 | 0.00 | 0.00 | 0.00 | 50 | 1011.9 |
| 20260509195902 | 32 | 203 | 3.2 | 3.2 | 0.00 | 0.00 | 0.00 | 52 | 1012.4 |
| 20260509195403 | 32 | 242 | 3.2 | 4.8 | 0.00 | 0.00 | 0.00 | 50 | 1012.2 |
| 20260509194902 | 32 | 264 | 1.6 | 1.6 | 0.00 | 0.00 | 0.00 | 52 | 1012.5 |
| 20260509194359 | 32 | 13 | 1.6 | 3.2 | 0.00 | 0.00 | 0.00 | 54 | 1012.7 |
| 20260509193855 | 31 | 267 | 4.8 | 4.8 | 0.00 | 0.00 | 0.00 | 55 | 1012.7 |
| 20260509193355 | 31 | 351 | 3.2 | 3.2 | 0.00 | 0.00 | 0.00 | 57 | 1012.9 |
| 20260509192852 | 30 | 37 | 1.6 | 3.2 | 0.00 | 0.00 | 0.00 | 57 | 1012.7 |
| 20260509192348 | 30 | 354 | 0.0 | 1.6 | 0.00 | 0.00 | 0.00 | 56 | 1013.0 |
| 20260509191843 | 31 | 8 | 3.2 | 4.8 | 0.00 | 0.00 | 0.00 | 55 | 1013.1 |
| 20260509191339 | 31 | 340 | 1.6 | 3.2 | 0.00 | 0.00 | 0.00 | 55 | 1012.9 |
| 20260509190835 | 31 | 77 | 1.6 | 1.6 | 0.00 | 0.00 | 0.00 | 55 | 1013.0 |
| 20260509190332 | 30 | 68 | 1.6 | 3.2 | 0.00 | 0.00 | 0.00 | 58 | 1013.1 |
| 20260509185830 | 30 | 29 | 1.6 | 3.2 | 0.00 | 0.00 | 0.00 | 59 | 1013.3 |
| 20260509185326 | 30 | 117 | 0.0 | 1.6 | 0.00 | 0.00 | 0.00 | 58 | 1013.1 |
| 20260509184824 | 31 | 346 | 1.6 | 1.6 | 0.00 | 0.00 | 0.00 | 55 | 1012.9 |
| 20260509184321 | 31 | 283 | 3.2 | 3.2 | 0.00 | 0.00 | 0.00 | 58 | 1013.0 |
| 20260509183817 | 31 | 337 | 1.6 | 4.8 | 0.00 | 0.00 | 0.00 | 56 | 1013.2 |
| 20260509183312 | 31 | 316 | 3.2 | 3.2 | 0.00 | 0.00 | 0.00 | 57 | 1013.3 |
| 20260509182808 | 31 | 353 | 4.8 | 4.8 | 0.00 | 0.00 | 0.00 | 56 | 1013.4 |
| 20260509182307 | 31 | 290 | 6.4 | 9.7 | 0.00 | 0.00 | 0.00 | 56 | 1013.4 |
| 20260509181803 | 31 | 199 | 4.8 | 4.8 | 0.00 | 0.00 | 0.00 | 55 | 1013.6 |
| 20260509181300 | 31 | 23 | 3.2 | 4.8 | 0.00 | 0.00 | 0.00 | 57 | 1013.8 |
| 20260509180758 | 31 | 211 | 6.4 | 8.0 | 0.00 | 0.00 | 0.00 | 57 | 1013.7 |
| 20260509180253 | 30 | 66 | 1.6 | 1.6 | 0.00 | 0.00 | 0.00 | 61 | 1013.8 |
| 20260509175750 | 30 | 241 | 3.2 | 4.8 | 0.00 | 0.00 | 0.00 | 59 | 1013.9 |
| 20260509175246 | 30 | 53 | 3.2 | 4.8 | 0.00 | 0.00 | 0.00 | 58 | 1013.9 |
| 20260509174743 | 30 | 133 | 1.6 | 3.2 | 0.00 | 0.00 | 0.00 | 61 | 1013.8 |
| 20260509174238 | 30 | 32 | 3.2 | 4.8 | 0.00 | 0.00 | 0.00 | 59 | 1013.8 |
| 20260509173734 | 30 | 203 | 4.8 | 4.8 | 0.00 | 0.00 | 0.00 | 61 | 1014.0 |
| 20260509173230 | 30 | 100 | 0.0 | 0.0 | 0.00 | 0.00 | 0.00 | 63 | 1013.9 |
| 20260509172726 | 29 | 270 | 6.4 | 8.0 | 0.00 | 0.00 | 0.00 | 61 | 1014.1 |
| 20260509172223 | 30 | 343 | 1.6 | 3.2 | 0.00 | 0.00 | 0.00 | 61 | 1013.8 |
| 20260509171718 | 28 | 46 | 0.0 | 1.6 | 0.00 | 0.00 | 0.00 | 66 | 1014.0 |
| 20260509171215 | 28 | 56 | 1.6 | 1.6 | 0.00 | 0.00 | 0.00 | 66 | 1014.0 |
| 20260509170712 | 29 | 131 | 3.2 | 3.2 | 0.00 | 0.00 | 0.00 | 65 | 1014.1 |
| 20260509170208 | 29 | 314 | 4.8 | 4.8 | 0.00 | 0.00 | 0.00 | 66 | 1014.0 |
| 20260509165706 | 29 | 250 | 4.8 | 4.8 | 0.00 | 0.00 | 0.00 | 64 | 1014.1 |
| 20260509165201 | 28 | 28 | 3.2 | 3.2 | 0.00 | 0.00 | 0.00 | 68 | 1014.2 |
| 20260509164658 | 28 | 352 | 4.8 | 8.0 | 0.00 | 0.00 | 0.00 | 70 | 1014.0 |
| 20260509164153 | 28 | 60 | 1.6 | 1.6 | 0.00 | 0.00 | 0.00 | 71 | 1014.1 |
| 20260509163651 | 27 | 21 | 3.2 | 3.2 | 0.00 | 0.00 | 0.00 | 73 | 1014.5 |
| 20260509163147 | 27 | 56 | 0.0 | 0.0 | 0.00 | 0.00 | 0.00 | 74 | 1014.4 |
| 20260509162645 | 27 | 128 | 0.0 | 1.6 | 0.00 | 0.00 | 0.00 | 76 | 1014.6 |
| 20260509162140 | 27 | 274 | 1.6 | 3.2 | 0.00 | 0.00 | 0.00 | 78 | 1014.5 |
| 20260509161637 | 27 | 63 | 1.6 | 1.6 | 0.00 | 0.00 | 0.00 | 75 | 1014.5 |
| 20260509161132 | 26 | 219 | 4.8 | 4.8 | 0.00 | 0.00 | 0.00 | 76 | 1014.5 |
| 20260509160628 | 26 | 17 | 3.2 | 3.2 | 0.00 | 0.00 | 0.00 | 79 | 1014.5 |
| 20260509160123 | 26 | 79 | 0.0 | 1.6 | 0.00 | 0.00 | 0.00 | 80 | 1014.1 |
| 20260509155620 | 26 | 84 | 1.6 | 3.2 | 0.00 | 0.00 | 0.00 | 81 | 1014.2 |
| 20260509155116 | 25 | 115 | 3.2 | 4.8 | 0.00 | 0.00 | 0.00 | 82 | 1014.2 |
| 20260509154612 | 25 | 265 | 1.6 | 1.6 | 0.00 | 0.00 | 0.00 | 84 | 1014.1 |
| 20260509154109 | 26 | 13 | 1.6 | 3.2 | 0.00 | 0.00 | 0.00 | 82 | 1014.1 |
| 20260509153606 | 25 | 29 | 1.6 | 1.6 | 0.00 | 0.00 | 0.00 | 84 | 1014.5 |
| 20260509153103 | 25 | 63 | 0.0 | 1.6 | 0.00 | 0.00 | 0.00 | 86 | 1014.7 |
| 20260509152559 | 25 | 240 | 3.2 | 3.2 | 0.00 | 0.00 | 0.00 | 89 | 1014.8 |
| 20260509152057 | 23 | 54 | 0.0 | 0.0 | 0.00 | 0.00 | 0.00 | 94 | 1014.6 |
| 20260509151552 | 23 | 81 | 1.6 | 1.6 | 0.00 | 0.00 | 0.00 | 98 | 1014.6 |
| 20260509151050 | 23 | 84 | 0.0 | 0.0 | 0.00 | 0.00 | 0.00 | 98 | 1014.9 |
| 20260509150548 | 23 | 90 | 1.6 | 1.6 | 0.00 | 0.00 | 0.00 | 98 | 1015.0 |
| 20260509150046 | 23 | 59 | 0.0 | 1.6 | 0.00 | 0.00 | 0.00 | 99 | 1014.7 |
| 20260509145541 | 22 | 287 | 1.6 | 3.2 | 0.00 | 0.00 | 0.00 | 99 | 1014.9 |
| 20260509145037 | 22 | 75 | 0.0 | 1.6 | 0.00 | 0.00 | 0.00 | 99 | 1014.9 |
| 20260509144534 | 22 | 72 | 0.0 | 0.0 | 0.00 | 0.00 | 0.00 | 99 | 1015.1 |
| 20260509144031 | 22 | 80 | 1.6 | 1.6 | 0.00 | 0.00 | 0.00 | 99 | 1014.9 |
| 20260509143528 | 22 | 68 | 0.0 | 0.0 | 0.00 | 0.00 | 0.00 | 99 | 1015.0 |
| 20260509143026 | 22 | 85 | 3.2 | 3.2 | 0.00 | 0.00 | 0.00 | 99 | 1015.0 |
| 20260509142521 | 22 | 74 | 0.0 | 0.0 | 0.00 | 0.00 | 0.00 | 99 | 1015.0 |
| 20260509142017 | 22 | 169 | 1.6 | 1.6 | 0.00 | 0.00 | 0.00 | 99 | 1015.2 |
| 20260509141514 | 22 | 335 | 1.6 | 3.2 | 0.00 | 0.00 | 0.00 | 99 | 1014.9 |
| 20260509141010 | 22 | 64 | 0.0 | 0.0 | 0.00 | 0.00 | 0.00 | 99 | 1014.5 |
| 20260509140507 | 22 | 68 | 0.0 | 0.0 | 0.00 | 0.00 | 0.00 | 99 | 1014.1 |
| 20260509140006 | 22 | 73 | 0.0 | 0.0 | 0.00 | 0.00 | 0.00 | 99 | 1013.9 |
| 20260509135502 | 21 | 50 | 0.0 | 0.0 | 0.00 | 0.00 | 0.00 | 99 | 1014.0 |
| 20260509134959 | 21 | 51 | 0.0 | 0.0 | 0.00 | 0.00 | 0.00 | 99 | 1013.9 |
| 20260509134457 | 21 | 31 | 3.2 | 3.2 | 0.00 | 0.00 | 0.00 | 99 | 1013.8 |
| 20260509133954 | 21 | 48 | 0.0 | 0.0 | 0.00 | 0.00 | 0.00 | 99 | 1013.9 |
| 20260509133450 | 21 | 51 | 0.0 | 0.0 | 0.00 | 0.00 | 0.00 | 99 | 1013.9 |
| 20260509132948 | 21 | 344 | 0.0 | 1.6 | 0.00 | 0.00 | 0.00 | 99 | 1013.9 |
| 20260509132446 | 21 | 48 | 0.0 | 1.6 | 0.00 | 0.00 | 0.00 | 99 | 1014.1 |
| 20260509131943 | 21 | 42 | 0.0 | 0.0 | 0.00 | 0.00 | 0.00 | 99 | 1014.0 |
| 20260509131440 | 21 | 56 | 0.0 | 0.0 | 0.00 | 0.00 | 0.00 | 99 | 1014.1 |
| 20260509130937 | 21 | 47 | 0.0 | 1.6 | 0.00 | 0.00 | 0.00 | 99 | 1013.9 |
| 20260509130432 | 21 | 30 | 1.6 | 1.6 | 0.00 | 0.00 | 0.00 | 99 | 1014.1 |
| 20260509125930 | 21 | 71 | 1.6 | 1.6 | 0.00 | 0.00 | 0.00 | 99 | 1014.0 |
| 20260509125426 | 21 | 50 | 0.0 | 1.6 | 0.00 | 0.00 | 0.00 | 99 | 1013.8 |
| 20260509124922 | 21 | 57 | 0.0 | 0.0 | 0.00 | 0.00 | 0.00 | 99 | 1013.9 |
| 20260509124419 | 21 | 70 | 0.0 | 0.0 | 0.00 | 0.00 | 0.00 | 99 | 1013.7 |
| 20260509123917 | 21 | 70 | 3.2 | 4.8 | 0.00 | 0.00 | 0.00 | 99 | 1013.9 |
| 20260509123414 | 21 | 46 | 3.2 | 3.2 | 0.00 | 0.00 | 0.00 | 99 | 1014.1 |
| 20260509122909 | 21 | 52 | 1.6 | 1.6 | 0.00 | 0.00 | 0.00 | 99 | 1013.9 |
| 20260509122407 | 21 | 73 | 0.0 | 1.6 | 0.00 | 0.00 | 0.00 | 99 | 1013.8 |
| 20260509121903 | 21 | 68 | 1.6 | 3.2 | 0.00 | 0.00 | 0.00 | 99 | 1013.8 |
| 20260509121400 | 21 | 116 | 0.0 | 1.6 | 0.00 | 0.00 | 0.00 | 99 | 1013.9 |
| 20260509120859 | 21 | 44 | 0.0 | 0.0 | 0.00 | 0.00 | 0.00 | 99 | 1014.2 |
| 20260509120356 | 21 | 92 | 1.6 | 1.6 | 0.00 | 0.00 | 0.00 | 99 | 1014.2 |
| 20260509115854 | 21 | 58 | 0.0 | 1.6 | 0.00 | 0.00 | 0.00 | 99 | 1014.1 |
| 20260509115351 | 21 | 6 | 4.8 | 4.8 | 0.00 | 0.00 | 0.00 | 99 | 1014.2 |
| 20260509114849 | 21 | 50 | 0.0 | 1.6 | 0.00 | 0.00 | 0.00 | 99 | 1014.4 |
| 20260509114347 | 21 | 9 | 4.8 | 4.8 | 0.00 | 0.00 | 0.00 | 99 | 1014.1 |
| 20260509113846 | 21 | 26 | 1.6 | 3.2 | 0.00 | 0.00 | 0.00 | 99 | 1013.9 |
| 20260509113343 | 21 | 28 | 3.2 | 3.2 | 0.00 | 0.00 | 0.00 | 99 | 1013.8 |
| 20260509112839 | 21 | 39 | 1.6 | 1.6 | 0.00 | 0.00 | 0.00 | 98 | 1014.1 |
| 20260509112337 | 21 | 49 | 1.6 | 1.6 | 0.00 | 0.00 | 0.00 | 98 | 1013.8 |
| 20260509111834 | 21 | 2 | 1.6 | 1.6 | 0.00 | 0.00 | 0.00 | 98 | 1013.6 |
| 20260509111331 | 21 | 45 | 0.0 | 1.6 | 0.00 | 0.00 | 0.00 | 98 | 1013.5 |
| 20260509110829 | 21 | 42 | 1.6 | 1.6 | 0.00 | 0.00 | 0.00 | 98 | 1013.6 |
| 20260509110324 | 21 | 65 | 0.0 | 0.0 | 0.00 | 0.00 | 0.00 | 98 | 1013.5 |
| 20260509105823 | 21 | 47 | 0.0 | 1.6 | 0.00 | 0.00 | 0.00 | 98 | 1013.5 |
| 20260509105320 | 21 | 73 | 0.0 | 1.6 | 0.00 | 0.00 | 0.00 | 98 | 1013.5 |
| 20260509104817 | 21 | 60 | 0.0 | 1.6 | 0.00 | 0.00 | 0.00 | 98 | 1013.4 |
| 20260509104314 | 21 | 41 | 1.6 | 1.6 | 0.00 | 0.00 | 0.00 | 98 | 1013.4 |
| 20260509103812 | 21 | 108 | 0.0 | 0.0 | 0.00 | 0.00 | 0.00 | 98 | 1013.5 |
| 20260509103308 | 21 | 60 | 0.0 | 0.0 | 0.00 | 0.00 | 0.00 | 98 | 1013.6 |
| 20260509102807 | 21 | 49 | 1.6 | 3.2 | 0.00 | 0.00 | 0.00 | 98 | 1013.7 |
| 20260509102306 | 21 | 65 | 0.0 | 0.0 | 0.00 | 0.00 | 0.00 | 98 | 1013.6 |
| 20260509101800 | 21 | 59 | 0.0 | 0.0 | 0.00 | 0.00 | 0.00 | 98 | 1013.4 |
| 20260509101256 | 21 | 42 | 0.0 | 0.0 | 0.00 | 0.00 | 0.00 | 98 | 1013.5 |
| 20260509100754 | 21 | 37 | 1.6 | 3.2 | 0.00 | 0.00 | 0.00 | 98 | 1013.5 |
| 20260509100251 | 21 | 44 | 1.6 | 1.6 | 0.00 | 0.00 | 0.00 | 98 | 1013.5 |
| 20260509095747 | 21 | 73 | 0.0 | 1.6 | 0.00 | 0.00 | 0.00 | 98 | 1013.2 |